Current Conditions
Misty
Conditions



Pressure
1013.92 (hPa) - 29.94 (inHG)
Visibility

2.5 (miles) - 4.0 (km)
Temperature
16  °C
Temperature
16  °C
Dewpoint
100  %
 Humidity
Wind Speed
7  mph
6  kts
11  km/h
3.1  m/s
Wind Direction
N
45°
E
90°
135°
S
180°
225°
W
270°
315°
 190°

Due South
Airport Data
EGVO
RAF Odiham
Metar :EGVO 182250Z AUTO 19006KT 3800 BR OVC003/// 16/16 Q1014 RERA
Mon 18th October 23:50 pm
Raw Metar Info
Raw METAR is the most common format in the world for the transmission of observational weather data. It is highly standardized through the International Civil Aviation Organization (ICAO), which allows it to be understood throughout most of the world.
API Info
Data Provided by
https://www.checkwx.com/weather/EGVO

Aviation Weather providing METAR, TAF, AIRMET, SIGMET and OUTLOOK Weather Reports
© Info
CSS/SVG/PHP scripts were developed by weather34.com for use in the weather34 template © 2015-2021

Guide Info provided by Metar-Wikipedia